Location: Roland
(31.1349°N, 85.4372°W)
Time: 22:48:30
(UTC+00:00)

Tiros 1 - Pass Details

Date: 24 April 2021
Orbit: 630 x 664 km, 48.4° (Epoch: 05 May)

Event Time Altitude Azimuth Distance (km) Brightness Sun altitude
Rises 18:03:34 0° 321° (NW) 2,921 10.4 71.2°
Reaches altitude 10° 18:06:34 10° 341° (NNW) 2,008 9.7 71.0°
Maximum altitude 18:09:44 18° 24° (NNE) 1,545 9.1 70.7°
Drops below altitude 10° 18:12:54 10° 68° (ENE) 2,002 9.7 70.4°
Sets 18:15:52 0° 87° (E) 2,909 10.4 70.2°
